Home > Weather > Mandurah > Past weeks

Flag for Australia Weather for the Past 2 Weeks in Mandurah, Western Australia, Australia

Now
90 °F

Sunny.


Feels Like: 86 °F
Forecast: 74 / 92 °F
Wind: 7 mph from Northeast

Location: Belmont Perth Airport

Current Time: Feb 9, 2016 at 9:37:35 AM

Latest Report: Feb 9, 2016 at 8:30 AM


Visibility: 10 mi

Pressure: 29.98 "Hg

Humidity: 16%

Dew point: 37 °F

Location of MandurahLocation

Historic Weather in Mandurah — Graph

°F

Mandurah Temperature Yesterday

Maximum temperature yesterday: 108 °F (at 1:30 PM)
Minimum temperature yesterday: 70 °F (at 1:00 AM)
Average temperature yesterday: 91 °F

High & Low Weather Summary for the Past Weeks

 TemperatureHumidityPressure
High108 °F (Feb 8, 1:30 PM)94% (Jan 30, 3:48 PM)30.12 "Hg (Jan 30, 3:48 PM)
Low45 °F (Feb 1, 6:00 AM)7% (Feb 8, 3:00 PM)29.56 "Hg (Jan 31, 2:00 AM)
Average78 °F45%29.90 "Hg
* Reported Jan 25 7:00 AM — Feb 9 7:30 AM, Mandurah, Weather by CustomWeather, © 2016

Note: Actual official high and low records may vary slightly from our data, if they occured in-between our weather recording intervals... More about our weather records

Advertising

Mandurah Weather History for the Previous 24 Hours

 ConditionsComfort  
Time TempWeatherWind HumidityBarometerVisibility
7:30 AM
Tue, Feb 9
84 °FSunny.10 mph18%29.98 "Hg10 mi
7:00 AM81 °FSunny.9 mph23%29.95 "Hg10 mi
6:30 AM79 °FSunny.6 mph26%29.95 "Hg10 mi
6:00 AM79 °FSunny.8 mph20%29.92 "Hg10 mi
5:00 AM79 °FSunny.2 mph23%29.92 "Hg10 mi
4:30 AM79 °FClear.10 mph21%29.89 "Hg10 mi
4:00 AM77 °FClear.9 mph24%29.89 "Hg10 mi
3:30 AM79 °FClear.10 mph23%29.89 "Hg10 mi
3:00 AM79 °FClear.9 mph24%29.89 "Hg10 mi
2:30 AM79 °FClear.7 mph24%29.89 "Hg10 mi
2:00 AM79 °FClear.9 mph26%29.89 "Hg10 mi
1:30 AM70 °FClear.6 mph43%29.92 "Hg10 mi
1:00 AM72 °FClear.2 mph41%29.92 "Hg10 mi
12:30 AM72 °FClear.No wind44%29.92 "Hg10 mi
12:00 AM73 °FClear.5 mph44%29.92 "Hg10 mi
11:30 PM
Mon, Feb 8
75 °FClear.5 mph39%29.95 "Hg10 mi
11:00 PM79 °FClear.No wind32%29.95 "Hg10 mi
10:30 PM81 °FClear.No wind30%29.95 "Hg10 mi
10:00 PM86 °FClear.8 mph25%29.95 "Hg10 mi
9:30 PM91 °FClear.10 mph16%29.95 "Hg10 mi
9:00 PM91 °FClear.10 mph18%29.92 "Hg10 mi
8:30 PM91 °FClear.12 mph16%29.92 "Hg10 mi
8:00 PM95 °FClear.9 mph13%29.92 "Hg10 mi
7:30 PM97 °FClear.10 mph13%29.89 "Hg10 mi
7:00 PM100 °FClear.14 mph10%29.89 "Hg10 mi
6:30 PM102 °FClear.17 mph9%29.89 "Hg10 mi
6:00 PM104 °FSunny.17 mph7%29.86 "Hg10 mi
5:30 PM106 °FSunny.14 mph8%29.86 "Hg10 mi
5:00 PM106 °FSunny.17 mph8%29.86 "Hg10 mi
4:30 PM108 °FSunny.6 mph8%29.86 "Hg10 mi
4:00 PM108 °FSunny.6 mph7%29.86 "Hg10 mi
3:30 PM106 °FSunny.6 mph9%29.86 "Hg10 mi
3:00 PM108 °FSunny.9 mph7%29.89 "Hg10 mi
2:30 PM108 °FSunny.7 mph8%29.89 "HgN/A
2:00 PM108 °FSunny.8 mph8%29.92 "Hg10 mi
1:30 PM108 °FSunny.6 mph9%29.92 "Hg10 mi
1:00 PM104 °FSunny.9 mph9%29.92 "Hg10 mi
12:00 PM104 °FSunny.14 mph9%29.95 "Hg10 mi
11:00 AM102 °FSunny.16 mph10%29.98 "Hg10 mi
10:30 AM99 °FSunny.18 mph10%29.98 "Hg10 mi
10:00 AM97 °FSunny.18 mph12%29.98 "Hg10 mi
9:00 AM95 °FSunny.17 mph11%30.01 "Hg10 mi
Weather by CustomWeather, © 2016

See weather overviewHow to use our weather pages